Location: Ailly
(50.0793°N, 1.9944°E)
Time: 23:59:33
(UTC+00:00)

Cosmos 2263 Rocket - Pass Details

Date: 15 January 2026
Orbit: 821 x 849 km, 71.0° (Epoch: 16 February)

Event Time Altitude Azimuth Distance (km) Brightness Sun altitude
Exits shadow 04:53:15 12° 353° (N) 2,360 4.4 -26.8°
Drops below altitude 10° 04:54:09 10° 2° (N) 2,482 4.6 -26.7°
Sets 04:58:10 0° 30° (NNE) 3,423 5.7 -26.1°
